User: anonymous   Login
Location: Caltech
(34.1382°N, 118.1253°W)
Time: 02:25:19
(UTC-07:00)
Language:

Cosmos 676 Rocket - Orbit

View from above orbital plane
View from above orbital plane
View from above satellite
View from above satellite

Ground track
Ground track

The orbit data is extracted from the following two-line orbital elements,

1 07434U 74071B   18172.70301431 -.00000001  00000-0  83933-5 0  9998
2 07434  74.0474 255.4034 0019649  73.4705 286.8605 14.36677917289773
Epoch (UTC): 21 June 2018 16:52:20
Eccentricity: 0.0019649
inclination: 74.0474°
perigee height: 755 km
apogee height: 783 km
right ascension of ascending node: 255.4034°
argument of perigee: 73.4705°
revolutions per day: 14.36677917
mean anomaly at epoch: 286.8605°
orbit number at epoch: 28977

The dashed part of the orbit path shows where the satellite is in the earth's shadow,  

DLR